• In Hungary
  • List of Countries
  • For 7 days
  • Water Temperature
  • Satellite Maps
  • Weather Map
  • News
  • Weather Widgets
  • user-avatar
    Login

    Hourly Weather Tubize

    Today, 25 February, Sunday

    Time Temperature Precipitation Wind Pressure Humidity
    00:00 -5°C° 0 mm 5 mps 763 mmHg 56%
    01:00 -5°C° 0 mm 5 mps 763 mmHg 54%
    02:00 -6°C° 0 mm 5 mps 763 mmHg 52%
    03:00 -6°C° 0 mm 6 mps 764 mmHg 51%
    04:00 -6°C° 0 mm 5 mps 764 mmHg 49%
    05:00 -6°C° 0 mm 5 mps 764 mmHg 47%
    06:00 -7°C° 0 mm 5 mps 765 mmHg 44%
    07:00 -6°C° 0 mm 6 mps 765 mmHg 39%
    08:00 -6°C° 0 mm 6 mps 765 mmHg 35%
    09:00 -6°C° 0 mm 7 mps 765 mmHg 30%
    10:00 -4°C° 0 mm 6 mps 765 mmHg 27%
    11:00 -3°C° 0 mm 6 mps 765 mmHg 23%
    12:00 0°C° 0 mm 5 mps 765 mmHg 20%
    13:00 -1°C° 0 mm 6 mps 765 mmHg 21%
    14:00 -1°C° 0 mm 6 mps 765 mmHg 21%
    15:00 -1°C° 0 mm 6 mps 764 mmHg 22%
    16:00 -3°C° 0 mm 6 mps 765 mmHg 25%
    17:00 -4°C° 0 mm 5 mps 765 mmHg 28%
    18:00 -5°C° 0 mm 5 mps 765 mmHg 32%
    19:00 -6°C° 0 mm 5 mps 765 mmHg 34%
    20:00 -6°C° 0 mm 5 mps 765 mmHg 37%
    21:00 -6°C° 0 mm 5 mps 766 mmHg 40%
    22:00 -6°C° 0 mm 5 mps 766 mmHg 42%
    23:00 -7°C° 0 mm 5 mps 766 mmHg 44%

    Tomorrow, 26 February, Monday

    Time Temperature Precipitation Wind Pressure Humidity
    00:00 -7°C° 0 mm 5 mps 766 mmHg 46%
    01:00 -7°C° 0 mm 5 mps 766 mmHg 49%
    02:00 -7°C° 0 mm 5 mps 766 mmHg 51%
    03:00 -7°C° 0 mm 5 mps 766 mmHg 54%
    04:00 -7°C° 0 mm 5 mps 767 mmHg 58%
    05:00 -7°C° 0 mm 5 mps 767 mmHg 62%
    06:00 -7°C° 0 mm 5 mps 767 mmHg 66%
    07:00 -7°C° 0 mm 5 mps 767 mmHg 62%
    08:00 -6°C° 0 mm 6 mps 767 mmHg 58%
    09:00 -5°C° 0 mm 6 mps 767 mmHg 54%
    10:00 -6°C° 0 mm 7 mps 767 mmHg 48%
    11:00 -4°C° 0 mm 7 mps 766 mmHg 43%
    12:00 -3°C° 0 mm 7 mps 766 mmHg 38%
    13:00 -3°C° 0 mm 7 mps 766 mmHg 38%
    14:00 -4°C° 0 mm 7 mps 765 mmHg 38%
    15:00 -4°C° 0 mm 7 mps 765 mmHg 38%
    16:00 -4°C° 0 mm 6 mps 765 mmHg 42%
    17:00 -5°C° 0 mm 5 mps 765 mmHg 45%
    18:00 -6°C° 0 mm 5 mps 765 mmHg 48%
    19:00 -6°C° 0 mm 5 mps 765 mmHg 50%
    20:00 -6°C° 0 mm 5 mps 765 mmHg 51%
    21:00 -7°C° 0 mm 5 mps 765 mmHg 53%
    22:00 -7°C° 0 mm 5 mps 765 mmHg 54%
    23:00 -7°C° 0 mm 4 mps 765 mmHg 55%

    Day after tomorrow, 27 February, Tuesday

    Time Temperature Precipitation Wind Pressure Humidity
    00:00 -7°C° 0 mm 4 mps 765 mmHg 56%
    01:00 -7°C° 0 mm 4 mps 764 mmHg 58%
    02:00 -7°C° 0 mm 4 mps 764 mmHg 60%
    03:00 -8°C° 0 mm 4 mps 764 mmHg 62%
    04:00 -8°C° 0 mm 4 mps 763 mmHg 64%
    05:00 -8°C° 0 mm 4 mps 763 mmHg 66%
    06:00 -8°C° 0 mm 4 mps 763 mmHg 68%
    07:00 -7°C° 0 mm 4 mps 763 mmHg 62%
    08:00 -7°C° 0 mm 4 mps 763 mmHg 57%
    09:00 -6°C° 0 mm 5 mps 763 mmHg 52%
    10:00 -5°C° 0 mm 5 mps 763 mmHg 45%
    11:00 -4°C° 0 mm 5 mps 762 mmHg 39%
    12:00 -4°C° 0 mm 5 mps 762 mmHg 33%
    13:00 -4°C° 0 mm 5 mps 761 mmHg 32%
    14:00 -4°C° 0 mm 5 mps 761 mmHg 31%
    15:00 -2°C° 0 mm 5 mps 760 mmHg 30%
    16:00 -3°C° 0 mm 4 mps 760 mmHg 35%
    17:00 -4°C° 0 mm 3 mps 760 mmHg 39%
    18:00 -5°C° 0 mm 3 mps 760 mmHg 44%
    19:00 -6°C° 0 mm 3 mps 761 mmHg 46%
    20:00 -6°C° 0 mm 3 mps 761 mmHg 48%
    21:00 -6°C° 0 mm 3 mps 761 mmHg 51%
    22:00 -5°C° 0 mm 2 mps 761 mmHg 52%
    23:00 -6°C° 0 mm 2 mps 761 mmHg 53%

    28 February, Wednesday

    Time Temperature Precipitation Wind Pressure Humidity
    00:00 -6°C° 0 mm 2 mps 761 mmHg 54%
    01:00 -7°C° 0 mm 3 mps 760 mmHg 52%
    02:00 -7°C° 0 mm 3 mps 760 mmHg 49%
    03:00 -7°C° 0 mm 3 mps 760 mmHg 46%
    04:00 -8°C° 0 mm 3 mps 760 mmHg 43%
    05:00 -9°C° 0 mm 4 mps 760 mmHg 40%
    06:00 -9°C° 0 mm 4 mps 760 mmHg 38%
    07:00 -8°C° 0 mm 5 mps 760 mmHg 34%
    08:00 -9°C° 0 mm 6 mps 760 mmHg 31%
    09:00 -8°C° 0 mm 7 mps 760 mmHg 28%
    10:00 -7°C° 0 mm 7 mps 760 mmHg 27%
    11:00 -7°C° 0 mm 7 mps 760 mmHg 26%
    12:00 -6°C° 0 mm 7 mps 760 mmHg 25%
    13:00 -6°C° 0 mm 7 mps 759 mmHg 25%
    14:00 -4°C° 0 mm 7 mps 758 mmHg 26%
    15:00 -4°C° 0 mm 7 mps 758 mmHg 27%
    16:00 -6°C° 0 mm 7 mps 757 mmHg 29%
    17:00 -7°C° 0 mm 7 mps 757 mmHg 32%
    18:00 -6°C° 0 mm 6 mps 757 mmHg 35%
    19:00 -8°C° 0 mm 6 mps 757 mmHg 36%
    20:00 -8°C° 0 mm 7 mps 757 mmHg 38%
    21:00 -8°C° 0 mm 7 mps 757 mmHg 39%
    22:00 -8°C° 0 mm 7 mps 756 mmHg 39%
    23:00 -8°C° 0 mm 7 mps 756 mmHg 40%

    1 March, Thursday

    Time Temperature Precipitation Wind Pressure Humidity
    00:00 -8°C° 0 mm 7 mps 755 mmHg 40%
    01:00 -8°C° 0 mm 8 mps 754 mmHg 41%
    02:00 -10°C° 0 mm 8 mps 754 mmHg 41%
    03:00 -10°C° 0 mm 8 mps 753 mmHg 41%
    04:00 -10°C° 0 mm 9 mps 752 mmHg 40%
    05:00 -9°C° 0 mm 9 mps 752 mmHg 40%
    06:00 -9°C° 0 mm 9 mps 752 mmHg 39%
    07:00 -9°C° 0 mm 9 mps 751 mmHg 38%
    08:00 -8°C° 0 mm 9 mps 751 mmHg 37%
    09:00 -8°C° 0 mm 9 mps 750 mmHg 37%
    10:00 -8°C° 0.1 mm 9 mps 750 mmHg 41%
    11:00 -6°C° 0.1 mm 8 mps 750 mmHg 45%
    12:00 -6°C° 0.1 mm 8 mps 749 mmHg 49%
    13:00 -6°C° 0 mm 8 mps 749 mmHg 51%
    14:00 -5°C° 0 mm 8 mps 749 mmHg 53%
    15:00 -5°C° 0 mm 8 mps 748 mmHg 54%
    16:00 -5°C° 0 mm 8 mps 748 mmHg 55%
    17:00 -4°C° 0 mm 7 mps 748 mmHg 56%
    18:00 -4°C° 0 mm 7 mps 748 mmHg 56%
    19:00 -4°C° 0 mm 7 mps 748 mmHg 55%
    20:00 -6°C° 0 mm 7 mps 748 mmHg 53%
    21:00 -5°C° 0 mm 6 mps 747 mmHg 51%
    22:00 -5°C° 0 mm 6 mps 747 mmHg 52%
    23:00 -5°C° 0 mm 6 mps 746 mmHg 52%

    2 March, Friday

    Time Temperature Precipitation Wind Pressure Humidity
    00:00 -5°C° 0 mm 6 mps 746 mmHg 53%
    01:00 -5°C° 0 mm 6 mps 746 mmHg 55%
    02:00 -5°C° 0 mm 6 mps 745 mmHg 56%
    03:00 -5°C° 0 mm 6 mps 745 mmHg 58%
    04:00 -5°C° 0.1 mm 5 mps 744 mmHg 61%
    05:00 -4°C° 0.1 mm 5 mps 744 mmHg 65%
    06:00 -4°C° 0.1 mm 5 mps 743 mmHg 69%
    07:00 -2°C° 0.2 mm 5 mps 743 mmHg 74%
    08:00 -2°C° 0.2 mm 4 mps 743 mmHg 78%
    09:00 -1°C° 0.2 mm 4 mps 743 mmHg 83%
    10:00 +1°C° 0 mm 4 mps 743 mmHg 82%
    11:00 +3°C° 0 mm 4 mps 743 mmHg 82%
    12:00 +5°C° 0 mm 4 mps 743 mmHg 81%
    13:00 +6°C° 0 mm 4 mps 742 mmHg 81%
    14:00 +6°C° 0 mm 4 mps 741 mmHg 81%
    15:00 +8°C° 0 mm 3 mps 741 mmHg 81%
    16:00 +6°C° 0.2 mm 4 mps 740 mmHg 85%
    17:00 +5°C° 0.2 mm 4 mps 740 mmHg 89%
    18:00 +3°C° 0.2 mm 4 mps 739 mmHg 92%
    19:00 +3°C° 1.9 mm 5 mps 739 mmHg 93%
    20:00 +3°C° 1.9 mm 5 mps 738 mmHg 93%
    21:00 +5°C° 1.9 mm 5 mps 738 mmHg 93%
    22:00 +4°C° 0.4 mm 6 mps 738 mmHg 92%
    23:00 +3°C° 0.4 mm 6 mps 738 mmHg 91%
    Show more